This is the latest recevied weather packets stored in our database for station/object W4NDF-13. If no packets are shown the sender has not sent any weather packets the latest 10 day(s).
| Time | Temp. | Humidity | Pressure | Rain* | Wind** | Luminosity | Snow |
|---|---|---|---|---|---|---|---|
| 1778177093 | 21.67° C | 94% | 1015.6 hPa | 0 mm | - | 319 W/m² | - |
| 1778176789 | 21.67° C | 95% | 1015.6 hPa | 0 mm | - | 263 W/m² | - |
| 1778176486 | 21.67° C | 95% | 1015.6 hPa | 0 mm | - | 170 W/m² | - |
| 1778176184 | 21.67° C | 96% | 1015.7 hPa | 0 mm | - | 150 W/m² | - |
| 1778175880 | 21.67° C | 96% | 1015.7 hPa | 0 mm | - | 198 W/m² | - |
| 1778175578 | 21.11° C | 97% | 1015.8 hPa | 0 mm | - | 239 W/m² | - |
| 1778175275 | 21.11° C | 97% | 1015.6 hPa | 0 mm | - | 242 W/m² | - |
| 1778174972 | 21.11° C | 97% | 1015.7 hPa | 0 mm | - | 210 W/m² | - |
| 1778174668 | 21.11° C | 97% | 1015.7 hPa | 0 mm | - | 249 W/m² | - |
| 1778174365 | 21.11° C | 96% | 1015.8 hPa | 0 mm | - | 147 W/m² | - |
| 1778174061 | 21.11° C | 95% | 1015.8 hPa | 0 mm | - | 109 W/m² | - |
| 1778173758 | 21.11° C | 95% | 1015.8 hPa | 0 mm | - | 136 W/m² | - |
| 1778173454 | 21.11° C | 94% | 1015.9 hPa | 0 mm | - | 72 W/m² | - |
| 1778173151 | 21.11° C | 94% | 1015.8 hPa | 0 mm | - | 101 W/m² | - |
| 1778172847 | 21.67° C | 94% | 1016 hPa | 0 mm | - | 135 W/m² | - |
| 1778172542 | 21.67° C | 93% | 1015.8 hPa | 0 mm | - | 133 W/m² | - |
| 1778172240 | 21.67° C | 93% | 1015.9 hPa | 0 mm | - | 103 W/m² | - |
| 1778171937 | 21.67° C | 93% | 1015.9 hPa | 0 mm | - | 138 W/m² | - |
| 1778171634 | 21.67° C | 94% | 1015.8 hPa | 0 mm | - | 135 W/m² | - |
| 1778171331 | 21.67° C | 95% | 1015.8 hPa | 0 mm | - | 119 W/m² | - |
| 1778171026 | 21.67° C | 95% | 1015.8 hPa | 0 mm | - | 128 W/m² | - |
| 1778170724 | 21.67° C | 96% | 1015.7 hPa | 0 mm | - | 180 W/m² | - |
| 1778170420 | 21.11° C | 97% | 1015.9 hPa | 0 mm | - | 164 W/m² | - |
| 1778170117 | 21.67° C | 97% | 1015.7 hPa | 0 mm | - | 198 W/m² | - |
| 1778169812 | 21.11° C | 97% | 1015.8 hPa | 0 mm | - | 171 W/m² | - |
* Rain latest hour (hover to see other rain measurements)
** Current wind speed in m/s (hover to see current wind gust speed)